Location: *
(58.4167°N, 22.5000°E)
Time: 00:23:01
(UTC+00:00)

SL-16 R/B - Pass Details

Date: 22 September 2019
Orbit: 840 x 849 km, 71.0° (Epoch: 18 October)

Event Time Altitude Azimuth Distance (km) Brightness Sun altitude
Rises 17:29:41 0° 321° (NW) 3,417 6.3 -8.5°
Reaches altitude 10° 17:32:08 10° 322° (NW) 2,480 5.5 -8.8°
Maximum altitude 17:37:51 87° 54° (NE) 857 2.2 -9.5°
Drops below altitude 10° 17:43:33 10° 143° (SE) 2,473 4.1 -10.2°
Enters shadow 17:44:17 - 143° (SE) 2,753 4.4 -10.3°
